Regional Weather Roundup
Issued by NWS

Home | Current Version | Previous Version | Graphics & Text | Print | Product List | Glossary On
Versions: 1 2 3 4 5 6 7 8 9 10 11 12 13 14 15 16 17 18 19 20 21 22 23 24 25 26 27 28 29 30 31 32 33 34 35 36 37 38 39 40 41 42 43 44 45 46 47 48 49 50
000
ASUS45 KBOI 041010
RWRID
WEATHER ROUNDUP FOR IDAHO
NATIONAL WEATHER SERVICE BOISE ID
300 AM MST WED MAR 04 2015

NOTE: "FAIR" INDICATES FEW OR NO CLOUDS BELOW 12000 FEET
WITH NO SIGNIFICANT WEATHER AND/OR OBSTRUCTIONS TO VISIBILITY

IDZ012-014-041100-
SOUTHWEST IDAHO


CITY           SKY/WX    TMP DP  RH WIND       PRES   REMARKS
BOISE          CLEAR     23  13  65 SW3       30.15S
CALDWELL       CLEAR     25  10  54 W6        30.20R WCI  18
MOUNTAIN HOME  CLEAR     24  11  56 NW9       30.15R WCI  15
$$

IDZ016-017-041100-
SOUTHCENTRAL IDAHO


CITY           SKY/WX    TMP DP  RH WIND       PRES   REMARKS
BURLEY         CLEAR     27  13  55 W16G23    30.05R WCI  15
JEROME         CLEAR     23  11  60 SW12      30.08R WCI  12
TWIN FALLS     CLEAR     27  11  51 SW15      30.07R WCI  15
$$

IDZ019>023-041100-
SOUTHEAST IDAHO


CITY           SKY/WX    TMP DP  RH WIND       PRES   REMARKS
IDAHO FALLS    CLEAR     15   9  76 N7        30.07R WCI   5
POCATELLO      CLEAR     18  16  92 W3        30.07R
REXBURG        CLEAR      8   3  80 NE6       30.06R WCI  -2
$$

IDZ006-010-011-018-031-032-041100-
CENTRAL IDAHO MOUNTAINS


CITY           SKY/WX    TMP DP  RH WIND       PRES   REMARKS
MCCALL         PTCLDY    17   8  67 N6        30.09R WCI   9
HAILEY         CLEAR     19  10  68 CALM      30.04R
STANLEY          N/A      3  -7  63 CALM      30.04R
SALMON         CLOUDY    19   7  58 NW6       30.14S WCI  11
CHALLIS        PTCLDY    16   3  56 NW9       30.09R WCI   4
$$

IDZ002-004-006-007-026-041100-
NORTHERN IDAHO


CITY           SKY/WX    TMP DP  RH WIND       PRES   REMARKS
LEWISTON       CLEAR     29  17  61 CALM      30.28R
LOWELL           N/A     25  21  85 NW3       30.33R
COEUR D`ALENE  CLEAR     25  16  68 S8        30.19S WCI  16
MULLAN PASS    CLEAR     13   5  70 S3        30.02R
$$



USA.gov is the U.S. government's official web portal to all federal, state and local government web resources and services.